Location: Chervonnoye
(48.6000°N, 34.4000°E)
Time: 07:40:34
(UTC+00:00)

KAITUO 1B - Pass Details

Date: 28 November 2021
Orbit: 486 x 507 km, 97.4° (Epoch: 18 January)

Event Time Altitude Azimuth Distance (km) Brightness Sun altitude
Rises 15:53:27 0° 189° (S) 2,586 ? -19.6°
Reaches altitude 10° 15:55:40 10° 199° (SSW) 1,711 ? -20.0°
Maximum altitude 15:59:00 31° 264° (W) 903 ? -20.5°
Drops below altitude 10° 16:02:22 10° 328° (NNW) 1,737 ? -21.1°
Sets 16:04:39 0° 339° (NNW) 2,631 ? -21.4°
